Location: Unspecified
(43.4680°N, 87.1740°E)
Time: 21:00:52
(UTC+00:00)

ERS-1 Rocket - Pass Details

Date: 17 April 2021
Orbit: 753 x 757 km, 98.4° (Epoch: 12 May)

Event Time Altitude Azimuth Distance (km) Brightness Sun altitude
Exits shadow 16:34:53 35° 281° (W) 1,204 4.2 -31.6°
Drops below altitude 10° 16:38:51 10° 330° (NNW) 2,286 6.3 -31.9°
Sets 16:41:19 0° 339° (NNW) 3,216 7.3 -32.1°
